CST,Max TemperatureF,Mean TemperatureF,Min TemperatureF,Max Dew PointF,MeanDew PointF,Min DewpointF,Max Humidity, Mean Humidity, Min Humidity, Max Sea Level PressureIn, Mean Sea Level PressureIn, Min Sea Level PressureIn, Max VisibilityMiles, Mean VisibilityMiles, Min VisibilityMiles, Max Wind SpeedMPH, Mean Wind SpeedMPH, Max Gust SpeedMPH,PrecipitationIn, CloudCover, Events, WindDirDegrees
2013-1-1,35,32,28,32,25,23,96,84,72,30.33,30.22,30.04,7,5,2,25,14,31,T,8,Snow,340
2013-1-2,43,35,26,26,23,21,81,65,49,30.35,30.28,30.21,10,10,7,16,8,21,0.00,4,,282
2013-1-3,42,31,20,25,22,18,84,65,45,30.49,30.44,30.32,10,10,10,14,7,18,0.00,0,,328
2013-1-4,47,35,22,28,24,18,88,65,41,30.48,30.41,30.30,10,10,10,21,7,24,0.00,7,,197
2013-1-5,50,41,31,33,30,23,85,66,46,30.33,30.24,30.17,10,10,9,20,11,25,0.00,4,,217
2013-1-6,52,39,26,26,22,19,78,53,28,30.45,30.37,30.33,10,10,10,13,6,14,0.00,0,,345
2013-1-7,51,36,21,28,23,17,75,53,30,30.32,30.21,30.08,10,10,10,20,9,24,0.00,5,,164
2013-1-8,55,42,30,45,37,27,93,75,43,30.15,30.08,30.02,10,9,3,16,7,,0.01,6,Rain,152
2013-1-9,49,48,46,47,45,43,93,87,80,30.30,30.19,30.09,7,3,0,23,13,29,0.24,8,Fog-Rain,33
2013-1-10,57,52,46,54,49,45,97,91,78,30.09,29.90,29.79,10,6,1,14,10,,0.12,8,Rain,133
2013-1-11,70,58,45,50,44,34,92,67,42,29.82,29.74,29.65,10,10,10,31,15,38,0.00,6,,191
2013-1-12,56,41,26,34,23,13,76,54,32,30.06,29.94,29.83,10,10,10,32,21,38,T,7,,358
2013-1-13,32,27,21,14,11,8,65,52,39,30.39,30.27,30.09,10,10,10,26,15,31,0.00,2,,360
2013-1-14,38,30,21,15,10,8,57,43,29,30.45,30.36,30.29,10,10,10,18,11,22,0.00,4,,40
2013-1-15,35,28,21,17,14,11,77,60,43,30.32,30.28,30.23,10,10,10,16,9,21,0.00,6,,360
2013-1-16,48,32,15,26,17,10,80,54,27,30.25,30.21,30.14,10,10,10,14,6,20,0.00,1,,259
2013-1-17,55,43,31,30,28,25,82,59,35,30.51,30.43,30.25,10,10,10,18,9,21,0.00,0,,339
2013-1-18,60,43,26,31,28,23,85,58,31,30.49,30.34,30.18,10,10,10,24,11,29,0.00,0,,177
2013-1-19,64,50,35,34,33,29,76,55,34,30.21,30.15,30.09,10,10,10,18,9,22,0.00,0,,224
2013-1-20,65,51,37,35,30,20,70,49,28,30.26,30.18,30.09,10,10,10,24,9,32,0.00,0,,26
2013-1-21,44,34,24,17,13,10,60,44,27,30.43,30.33,30.28,10,10,10,21,10,29,0.00,0,,38
2013-1-22,59,40,21,33,24,15,74,52,30,30.29,30.23,30.15,10,10,10,18,7,22,0.00,0,,167
2013-1-23,70,49,27,47,39,27,100,72,44,30.23,30.17,30.09,10,8,2,14,5,17,0.00,2,,158
2013-1-24,50,41,31,42,28,24,80,69,57,30.24,30.17,30.11,10,9,7,21,11,26,0.00,7,,22
2013-1-25,50,39,28,31,28,24,85,64,42,30.26,30.20,30.13,10,7,3,17,8,22,0.00,7,,19
2013-1-26,48,38,28,43,37,24,96,83,70,30.23,30.14,30.05,10,5,0,18,9,24,T,7,Fog-Rain,140
2013-1-27,70,57,43,55,51,42,100,81,61,30.04,29.91,29.81,10,5,0,25,16,32,T,6,Fog-Rain,171
2013-1-28,74,67,60,61,59,54,97,81,64,29.91,29.81,29.70,10,10,9,30,18,40,0.00,6,,181
2013-1-29,68,54,40,61,52,34,93,83,73,29.71,29.58,29.44,10,9,1,28,13,35,0.73,7,Rain-Thunderstorm,256
2013-1-30,47,37,27,34,25,16,79,54,28,30.08,29.92,29.68,10,10,10,31,17,38,T,5,Rain,315
2013-1-31,59,43,26,26,20,12,75,51,26,30.41,30.18,30.04,10,10,10,24,11,31,0.00,0,,286